Location: Monrovia
(34.7865°N, 86.7139°W)
Time: 23:21:07
(UTC+00:00)

SL-8 Rocket - Pass Details

Date: 14 July 2020
Orbit: 958 x 990 km, 82.9° (Epoch: 12 August)

Event Time Altitude Azimuth Distance (km) Brightness Sun altitude
Exits shadow 04:32:33 68° 267° (W) 1,032 4.0 -30.5°
Maximum altitude 04:32:43 68° 277° (W) 1,030 4.1 -30.5°
Drops below altitude 10° 04:38:51 10° 1° (N) 2,695 7.1 -30.9°
Sets 04:41:23 0° 4° (N) 3,644 7.9 -31.1°
